Weather History for Fredericksburg, TX

Change the Weather History Date:

Monday, June 9, 2014

  Actual Average (KSAT) Record (KSAT)
Temperature  
Mean Temperature 72 °F 82 °F  
Max Temperature 80 °F 92 °F 104 °F (1910)
Min Temperature 64 °F 72 °F 58 °F (1890)
Degree Days  
Heating Degree Days 0 0  
Month to date heating degree days 0  
Since 1 June heating degree days 0  
Since 1 July heating degree days 1496  
Cooling Degree Days 6 17  
Month to date cooling degree days 146  
Year to date cooling degree days 775  
Since 1 June cooling degree days 146  
Growing Degree Days 22 (Base 50)    
Moisture  
Dew Point 67 °F    
Average Humidity 79    
Maximum Humidity 96    
Minimum Humidity 66    
Precipitation  
Precipitation 0.64 in 0.15 in 2.89 in (2004)
Month to date precipitation 1.28  
Year to date precipitation 13.25  
Snow  
Snow 0.00 in - - ()
Month to date snowfall  
Since 1 June snowfall  
Since 1 July snowfall  
Snow Depth -    
Sea Level Pressure  
Sea Level Pressure 29.86 in    
Wind  
Wind Speed 9 mph (WSW)    
Max Wind Speed 20 mph    
Max Gust Speed 32 mph    
Visibility 10 miles    
Events Rain , Thunderstorm    
T = Trace of Precipitation, MM = Missing Value Source: NWS Daily Summary

Daily Weather History Graph

Daily Weather History Graph

Search for Another Location

Airport:

Trip Planner

Search our weather history database for the weather conditions in past years. The results will help you decide how hot, cold, wet, or windy it might be!

Date:

Astronomy

Jun. 09, 2014 Rise Set
Actual Time 6:33 AM CDT 8:36 PM CDT
Civil Twilight 6:05 AM CDT 9:04 PM CDT
Nautical Twilight 5:32 AM CDT 9:37 PM CDT
Astronomical Twilight 4:57 AM CDT 10:12 PM CDT
Moon 5:11 PM CDT (6/9) 3:46 AM CDT (6/9)
Length of Visible Light 14h 58m
Length of Day
14h 03m
Waxing Gibbous, 85% of the Moon is Illuminated
Jun 9
Waxing Gibbous
Jun 12
Full
Jun 19
Last Quarter
Jun 27
New
Jul 5
First Quarter

Hourly Weather History & Observations

Time (CDT) Temp. Dew Point Humidity Pressure Visibility Wind Dir Wind Speed Gust Speed Precip Events Conditions
12:15 AM 75.2 °F 69.1 °F 81% 29.88 in 10.0 mi SSE 8.1 mph - N/A   Unknown
12:35 AM 75.2 °F 69.1 °F 81% 29.87 in 10.0 mi South 9.2 mph - N/A   Unknown
1:15 AM 74.5 °F 69.4 °F 84% 29.85 in 10.0 mi South 11.5 mph - N/A   Unknown
1:35 AM 74.7 °F 69.4 °F 84% 29.84 in 10.0 mi South 10.4 mph - N/A   Unknown
1:55 AM 74.8 °F 69.4 °F 83% 29.84 in 10.0 mi South 8.1 mph 19.6 mph N/A   Unknown
2:15 AM 74.7 °F 69.6 °F 84% 29.83 in 10.0 mi South 13.8 mph 19.6 mph N/A   Unknown
2:35 AM 74.8 °F 69.6 °F 84% 29.83 in 10.0 mi South 9.2 mph - N/A   Unknown
2:55 AM 74.8 °F 69.8 °F 84% 29.82 in 10.0 mi South 8.1 mph - N/A   Unknown
3:15 AM 75.2 °F 69.8 °F 83% 29.84 in 10.0 mi South 6.9 mph - N/A   Unknown
3:35 AM 75.0 °F 69.8 °F 84% 29.83 in 10.0 mi SSW 9.2 mph - N/A   Unknown
3:55 AM 75.2 °F 69.4 °F 82% 29.83 in 10.0 mi SSW 10.4 mph - N/A   Unknown
4:15 AM 74.8 °F 69.1 °F 82% 29.83 in 10.0 mi SSW 12.7 mph 18.4 mph N/A   Unknown
4:35 AM 74.7 °F 68.5 °F 81% 29.82 in 10.0 mi SSW 11.5 mph 17.3 mph N/A   Unknown
4:55 AM 73.6 °F 68.9 °F 85% 29.82 in 7.0 mi SSW 9.2 mph - N/A   Unknown
5:15 AM 74.3 °F 68.4 °F 82% 29.81 in 10.0 mi South 9.2 mph - N/A   Unknown
5:35 AM 73.9 °F 68.0 °F 82% 29.83 in 10.0 mi South 9.2 mph - N/A   Unknown
5:55 AM 73.9 °F 67.8 °F 81% 29.82 in 10.0 mi South 10.4 mph - N/A   Unknown
6:15 AM 73.6 °F 67.1 °F 80% 29.82 in 10.0 mi South 11.5 mph 18.4 mph N/A   Unknown
6:35 AM 73.4 °F 67.1 °F 81% 29.83 in 10.0 mi South 13.8 mph 20.7 mph N/A   Unknown
6:55 AM 73.4 °F 66.4 °F 79% 29.83 in 10.0 mi South 12.7 mph 18.4 mph N/A   Unknown
7:15 AM 73.4 °F 66.2 °F 78% 29.82 in 10.0 mi South 17.3 mph 20.7 mph N/A   Unknown
7:35 AM 73.0 °F 66.2 °F 79% 29.81 in 10.0 mi South 12.7 mph 19.6 mph N/A   Unknown
7:55 AM 73.0 °F 66.6 °F 80% 29.81 in 10.0 mi South 11.5 mph 16.1 mph N/A   Unknown
8:15 AM 73.2 °F 66.6 °F 80% 29.80 in 10.0 mi South 17.3 mph 26.5 mph N/A   Unknown
8:35 AM 73.0 °F 66.6 °F 80% 29.80 in 10.0 mi South 19.6 mph 29.9 mph N/A   Unknown
8:55 AM 73.0 °F 66.7 °F 81% 29.89 in 10.0 mi North 5.8 mph 18.4 mph N/A   Unknown
9:15 AM 69.1 °F 64.9 °F 87% 29.90 in 4.0 mi North 18.4 mph 32.2 mph 0.05 in Rain , Thunderstorm Rain
9:35 AM 64.0 °F 62.2 °F 94% 29.91 in 0.8 mi NNE 18.4 mph 27.6 mph 0.54 in Rain , Thunderstorm Heavy Thunderstorms and Rain
9:55 AM 65.7 °F 64.4 °F 96% 29.90 in 10.0 mi NE 10.4 mph - 0.63 in Rain , Thunderstorm Light Thunderstorms and Rain
10:15 AM 65.7 °F 64.2 °F 95% 29.90 in 10.0 mi NE 5.8 mph - 0.01 in Rain , Thunderstorm Light Thunderstorms and Rain
10:35 AM 66.6 °F 64.8 °F 94% 29.89 in 10.0 mi East 4.6 mph - 0.01 in Thunderstorm Unknown
10:55 AM 68.0 °F 66.0 °F 93% 29.88 in 10.0 mi East 3.5 mph - 0.01 in   Unknown
11:35 AM 72.0 °F 67.3 °F 85% 29.89 in 10.0 mi East 4.6 mph - N/A   Unknown
11:55 AM 73.2 °F 67.6 °F 83% 29.88 in 10.0 mi ESE 5.8 mph - N/A   Unknown
12:15 PM 73.6 °F 67.5 °F 81% 29.88 in 10.0 mi ESE 4.6 mph - N/A   Unknown
12:35 PM 74.5 °F 67.6 °F 79% 29.88 in 10.0 mi ESE 4.6 mph - N/A   Unknown
12:55 PM 75.4 °F 67.8 °F 77% 29.88 in 10.0 mi ENE 4.6 mph - N/A   Unknown
1:15 PM 75.6 °F 68.0 °F 77% 29.88 in 10.0 mi East 6.9 mph - N/A   Unknown
1:35 PM 75.2 °F 68.9 °F 81% 29.88 in 10.0 mi NE 6.9 mph - N/A   Unknown
2:35 PM 76.3 °F 68.7 °F 77% 29.86 in 10.0 mi Calm Calm - N/A   Unknown
2:55 PM 76.6 °F 67.6 °F 74% 29.87 in 10.0 mi NW 3.5 mph - N/A   Unknown
3:15 PM 77.4 °F 68.7 °F 75% 29.86 in 10.0 mi NNW 6.9 mph - N/A   Unknown
3:35 PM 77.2 °F 69.1 °F 76% 29.85 in 10.0 mi North 6.9 mph - N/A   Unknown
3:55 PM 77.9 °F 68.5 °F 73% 29.85 in 10.0 mi WNW 5.8 mph - N/A   Unknown
4:15 PM 79.0 °F 68.4 °F 70% 29.84 in 10.0 mi WSW 5.8 mph - N/A   Unknown
4:35 PM 79.9 °F 68.2 °F 67% 29.84 in 10.0 mi WNW 5.8 mph - N/A   Unknown
4:55 PM 79.9 °F 68.4 °F 68% 29.83 in 10.0 mi West 8.1 mph - N/A   Unknown
5:15 PM 79.2 °F 67.6 °F 68% 29.84 in 10.0 mi North 8.1 mph - N/A   Unknown
5:35 PM 79.0 °F 67.5 °F 68% 29.84 in 10.0 mi Calm Calm - N/A   Unknown
5:55 PM 79.0 °F 67.1 °F 67% 29.84 in 10.0 mi Calm Calm - N/A   Unknown
6:15 PM 79.5 °F 67.5 °F 66% 29.85 in 10.0 mi NNW 5.8 mph - N/A   Unknown
6:35 PM 78.8 °F 67.5 °F 68% 29.85 in 10.0 mi NNW 6.9 mph - N/A   Unknown
6:55 PM 78.4 °F 66.9 °F 68% 29.86 in 10.0 mi North 9.2 mph - N/A   Unknown
7:15 PM 78.1 °F 66.7 °F 68% 29.87 in 10.0 mi North 8.1 mph - N/A   Unknown
7:35 PM 77.5 °F 66.4 °F 68% 29.87 in 10.0 mi North 8.1 mph - N/A   Unknown
7:55 PM 76.6 °F 65.8 °F 69% 29.87 in 10.0 mi North 6.9 mph - N/A   Unknown
8:15 PM 75.7 °F 65.7 °F 71% 29.87 in 10.0 mi NNW 5.8 mph - N/A   Unknown
8:35 PM 75.7 °F 65.7 °F 71% 29.87 in 10.0 mi North 4.6 mph - N/A   Unknown
8:55 PM 74.5 °F 65.5 °F 73% 29.88 in 10.0 mi North 5.8 mph - N/A   Unknown
9:15 PM 73.6 °F 64.9 °F 74% 29.89 in 10.0 mi North 6.9 mph - N/A   Unknown
9:35 PM 73.0 °F 64.4 °F 74% 29.90 in 10.0 mi NNW 4.6 mph - N/A   Unknown
9:55 PM 73.0 °F 64.4 °F 74% 29.90 in 10.0 mi Calm Calm - N/A   Unknown
10:15 PM 72.5 °F 64.6 °F 76% 29.91 in 10.0 mi Calm Calm - N/A   Unknown
10:35 PM 71.8 °F 64.9 °F 79% 29.92 in 10.0 mi NW 3.5 mph - N/A   Unknown
10:55 PM 70.0 °F 65.3 °F 85% 29.93 in 10.0 mi NW 5.8 mph - N/A   Unknown
11:15 PM 68.9 °F 64.9 °F 87% 29.93 in 10.0 mi NW 5.8 mph - N/A   Unknown
11:35 PM 68.4 °F 64.2 °F 87% 29.92 in 10.0 mi NW 4.6 mph - N/A   Unknown
11:55 PM 68.0 °F 63.5 °F 85% 29.92 in 10.0 mi NW 5.8 mph - N/A   Unknown